GFSSGP_sfc_dewp_000.txt.gz
Dewpoint
66 62 54 46 42 43 41 41 39 38 34 27 26 25 26 28 42 33 50 58 51 53 63 71 73 73 71 71 71 71 70 69 68 67 65 64 64 64 64 64 64 64 64 64 63 63 62 61 61
63 58 50 50 43 40 40 43 39 38 36 27 26 27 28 27 44 48 54 58 53 59 64 71 73 73 72 72 72 71 71 70 68 67 66 65 66 64 65 65 65 66 66 66 65 65 64 62 62
54 46 47 48 45 42 39 41 39 39 37 29 25 28 32 35 45 48 55 59 60 60 66 70 73 73 73 72 72 72 71 70 69 67 66 67 67 68 68 66 66 66 66 67 66 66 65 64 64
48 52 50 46 44 45 42 43 43 34 28 26 28 30 35 38 45 49 58 59 60 62 66 70 73 73 73 73 72 72 71 71 70 68 68 68 68 68 68 67 67 66 66 65 64 66 67 66 66
52 50 47 43 44 44 42 42 39 30 21 21 30 29 33 40 49 58 59 59 59 63 66 69 73 73 73 73 72 72 72 71 71 69 68 68 68 68 67 67 67 66 66 65 64 65 67 67 66
47 44 40 38 38 38 37 37 35 29 27 23 30 34 33 43 51 60 59 58 58 62 66 69 73 73 73 73 72 72 72 71 71 71 70 69 68 68 67 67 66 66 66 64 64 66 67 67 67
44 41 38 37 36 36 37 35 29 29 29 28 31 31 32 40 47 61 60 58 59 61 65 69 71 72 73 73 72 72 71 71 72 71 69 68 66 64 64 64 64 65 65 64 64 65 66 67 66
44 40 38 38 34 32 34 30 29 30 31 34 38 30 28 38 48 55 59 59 62 63 64 68 70 71 70 71 73 72 72 71 70 68 67 63 63 62 62 63 63 63 64 64 64 64 64 66 66
44 39 36 35 35 33 35 33 34 34 30 28 32 32 37 45 46 52 56 58 60 63 64 66 68 68 68 69 71 72 70 68 68 65 63 65 62 62 62 62 62 62 63 63 63 63 65 65 64
41 39 37 36 34 35 36 38 38 32 34 27 26 30 39 43 45 48 52 54 57 60 62 65 65 66 66 67 66 67 65 64 62 63 62 62 61 61 62 62 62 63 63 64 64 64 64 64 63
41 37 38 36 36 38 39 38 39 35 35 35 31 31 35 41 43 44 47 52 54 56 60 62 64 63 64 64 63 63 62 62 61 62 62 61 60 60 61 62 62 61 62 63 63 63 64 64 63
40 40 39 37 37 38 37 38 37 37 36 36 34 34 38 40 41 42 44 48 48 49 55 59 62 62 62 62 62 62 61 60 60 60 61 60 59 60 60 60 60 61 62 62 62 62 63 63 63
38 39 39 40 39 38 39 38 37 37 37 37 35 32 34 41 40 41 42 44 44 44 49 56 59 60 60 59 60 60 60 60 59 59 60 60 59 59 60 60 60 61 62 62 62 61 62 62 62
40 39 38 39 38 37 37 38 39 39 40 37 35 34 34 40 40 40 41 41 41 42 47 54 57 58 58 58 58 59 59 60 60 59 60 60 60 60 60 60 61 61 61 60 61 61 61 61 62
28 30 31 30 29 32 35 34 34 36 37 33 32 31 32 40 41 40 40 40 40 43 50 54 56 57 58 58 59 59 59 60 59 60 60 61 61 61 60 60 61 60 60 60 60 60 61 61 61
24 26 23 24 30 31 33 28 31 34 34 32 32 32 33 35 40 40 40 41 43 48 50 54 56 58 58 58 58 59 59 59 59 60 61 61 61 61 60 60 60 60 60 59 59 59 59 60 60
24 19 20 21 24 26 32 26 30 33 32 31 32 33 34 34 38 41 42 43 47 50 53 55 57 58 58 57 57 58 59 60 60 61 61 61 61 61 60 60 59 59 59 59 58 58 59 58 59
19 20 21 19 20 26 25 27 29 29 30 32 33 33 34 35 34 37 43 46 50 52 53 55 57 57 57 57 57 58 58 59 60 61 61 61 61 62 61 59 59 59 58 58 57 57 58 59 59
20 17 14 19 21 23 25 27 29 30 30 30 30 31 33 35 37 40 45 47 51 53 54 55 56 57 56 56 56 57 57 58 59 60 61 62 62 61 59 59 58 59 58 57 57 57 57 58 59
23 17 16 20 26 26 27 26 27 28 28 30 30 30 32 35 41 45 46 47 50 52 54 55 55 56 56 56 57 57 57 58 59 60 61 62 62 61 59 58 59 58 57 57 57 57 57 57 58
22 20 20 20 26 28 27 25 27 29 31 31 32 35 35 35 41 45 45 47 50 52 54 55 55 56 56 56 57 57 57 58 58 59 59 60 60 61 61 59 59 58 57 56 56 57 57 57 57
24 25 23 25 26 21 28 25 26 28 28 29 28 29 32 36 43 46 45 49 50 53 55 55 55 56 56 57 56 55 56 55 57 57 58 59 60 60 60 59 59 58 57 57 57 58 58 58 57
25 26 26 28 27 25 25 24 24 28 26 27 29 28 29 31 45 45 46 49 52 54 54 55 55 56 56 58 57 57 55 56 57 57 57 58 59 60 59 59 58 58 58 57 57 58 58 58 58
24 23 25 26 25 22 22 24 22 26 26 27 28 29 34 41 47 46 48 51 52 53 55 55 55 55 56 57 57 57 55 56 56 56 56 56 57 59 58 58 58 57 58 57 58 58 58 58 59
22 20 18 20 21 21 23 23 20 27 29 27 27 29 41 46 47 47 47 48 51 52 54 54 54 54 56 56 57 56 57 56 55 56 56 55 56 57 57 57 57 58 58 59 59 59 59 59 60
21 21 19 14 19 22 26 24 24 29 30 31 31 32 43 48 47 46 47 48 50 52 53 53 53 54 55 56 57 56 57 56 55 56 56 55 55 56 57 57 58 58 59 59 59 60 59 59 61
18 19 21 22 25 22 24 26 27 28 27 28 34 40 43 47 47 47 47 48 50 52 53 52 52 53 54 55 57 57 57 56 56 56 56 56 56 57 57 57 58 59 59 59 60 61 61 61 61
16 20 19 19 18 18 21 24 24 26 25 32 36 37 43 48 48 47 48 49 50 52 52 53 52 52 52 54 55 57 58 57 56 57 56 56 56 57 57 57 58 59 60 60 60 61 62 61 61
15 16 19 20 22 21 20 23 28 26 26 28 33 37 44 48 48 48 48 49 50 51 51 52 52 51 51 54 54 58 58 57 56 57 57 56 56 56 57 58 59 59 59 60 61 61 61 61 61
14 14 21 15 21 22 24 24 29 28 27 29 33 40 45 48 48 48 48 48 49 50 50 50 52 51 51 54 54 57 58 58 57 57 57 57 56 57 57 59 59 59 59 60 60 60 61 61 61

GFSSGP_sfc_dewp_003.txt.gz
Dewpoint
64 60 52 47 38 41 34 39 40 39 37 29 28 28 28 32 39 28 54 59 57 50 60 70 74 73 72 72 71 71 70 70 68 66 65 65 64 64 64 64 65 65 65 65 65 64 64 62 62
59 54 51 48 39 39 39 43 41 39 39 39 28 27 27 26 38 44 53 60 56 53 65 66 74 73 73 72 72 72 71 70 69 68 67 66 66 65 65 66 66 66 66 65 67 66 66 65 63
54 48 49 47 46 41 39 41 40 42 39 33 30 27 28 31 43 48 56 60 55 57 65 68 74 74 73 73 73 73 72 71 70 69 68 68 68 68 68 68 67 66 66 65 67 67 67 66 66
47 51 50 44 43 46 44 42 44 42 31 30 27 27 34 38 43 48 58 57 56 57 64 68 74 74 73 73 73 73 73 72 71 70 69 69 69 69 69 68 68 67 67 66 66 66 67 67 67
53 52 38 43 42 44 45 45 44 38 33 25 26 27 33 38 47 53 59 57 54 55 64 66 74 74 74 73 73 73 73 72 72 71 70 70 70 69 68 68 67 67 67 67 66 67 68 68 67
44 47 38 30 32 38 39 39 38 34 29 29 28 29 32 41 48 55 58 58 54 57 62 66 73 74 74 73 73 73 73 72 72 72 71 70 70 69 68 68 68 68 67 67 66 67 67 67 68
42 42 32 34 31 32 33 36 36 31 31 31 30 29 34 38 43 54 58 58 57 59 62 66 68 72 74 73 73 73 73 72 72 72 71 70 69 67 65 64 65 65 66 66 66 66 66 67 66
43 41 35 35 30 29 32 32 29 32 32 33 33 30 33 38 46 56 57 56 56 59 61 64 67 68 68 68 73 73 73 72 72 72 70 68 64 63 63 64 63 64 64 64 65 65 65 66 66
44 37 31 31 31 28 33 32 34 34 35 32 31 34 36 43 51 55 57 56 56 57 62 63 65 68 68 66 68 72 72 71 71 69 68 65 62 62 61 61 63 62 63 64 64 64 64 64 64
40 37 34 34 32 32 33 37 37 36 34 35 36 36 34 41 46 49 53 52 55 57 59 61 67 67 67 66 68 68 66 65 66 65 64 64 65 63 61 61 62 62 63 65 65 65 64 65 59
39 37 36 35 35 36 35 36 36 35 33 34 35 37 38 38 43 46 49 50 50 55 57 59 65 68 68 66 67 67 66 66 66 65 65 65 63 63 61 61 62 62 61 60 61 61 59 62 62
36 38 37 36 37 37 36 37 37 38 37 38 39 39 38 38 39 44 48 50 51 54 57 61 64 67 69 66 66 65 64 64 62 63 65 65 63 63 63 61 62 63 61 62 62 61 62 63 63
40 37 39 39 39 39 39 39 38 37 37 37 38 40 39 39 40 44 46 50 53 54 56 61 65 66 68 68 64 64 63 61 62 62 64 64 63 64 63 63 62 63 60 62 64 63 62 62 63
33 37 37 38 38 38 37 36 37 37 39 38 40 40 39 39 39 41 45 48 53 55 56 59 64 67 67 65 65 64 64 62 63 62 63 64 63 64 62 63 63 66 66 64 64 61 61 60 62
37 37 38 38 38 37 35 29 31 33 35 36 37 38 39 39 38 41 46 50 51 52 53 59 63 66 66 65 64 62 61 63 62 63 65 64 65 65 65 66 65 66 65 65 64 63 63 62 61
25 26 22 23 27 28 27 23 25 30 33 34 36 37 36 38 39 41 45 52 52 52 53 57 58 64 66 65 63 62 62 62 63 63 64 64 65 66 66 66 65 65 65 66 63 63 60 59 60
25 19 21 21 26 26 30 25 26 30 32 33 35 35 35 37 41 47 47 49 51 53 55 57 61 62 64 64 62 64 65 63 63 63 63 65 65 65 66 65 64 65 64 62 64 63 61 60 60
20 21 21 21 21 22 21 24 26 30 31 33 34 35 37 37 40 44 48 49 52 55 58 61 61 64 64 62 62 62 62 62 63 63 64 65 65 65 65 65 63 63 61 60 60 63 61 60 61
23 22 22 23 21 19 19 21 26 30 31 31 33 34 37 41 42 43 45 50 52 56 59 61 63 64 62 59 58 60 60 61 62 63 65 65 66 65 65 64 62 61 61 62 62 61 59 61 62
22 22 21 20 19 20 20 22 26 29 30 30 34 36 38 39 41 43 48 51 54 56 59 62 62 63 62 59 61 61 62 62 62 64 65 65 65 64 64 63 61 61 61 61 61 60 58 60 62
21 19 20 19 19 21 23 22 22 24 32 31 32 35 38 40 43 45 48 50 53 56 59 61 62 62 62 62 62 63 64 62 61 62 63 64 62 63 64 62 61 62 61 61 61 60 58 57 58
19 21 20 20 22 15 25 19 25 26 27 28 29 35 37 39 42 46 49 50 53 55 58 60 61 62 62 63 62 63 60 59 61 62 63 63 62 62 62 63 62 62 60 60 59 58 58 59 58
19 20 23 24 24 25 23 23 23 26 25 27 29 29 37 39 38 46 48 50 53 56 58 60 61 62 62 63 62 61 62 61 62 62 62 63 63 62 61 62 62 61 59 61 60 59 60 63 61
23 23 26 26 24 20 20 23 20 22 24 24 29 32 34 40 46 48 50 53 54 56 57 59 60 62 62 62 63 64 62 61 59 60 60 61 61 62 61 60 61 61 61 60 59 60 61 62 63
27 26 17 16 17 17 20 21 23 23 22 25 29 33 37 47 48 49 50 51 54 55 57 57 59 60 62 62 62 62 62 61 59 59 60 59 59 59 61 61 61 60 62 62 62 62 62 61 62
26 24 17 18 17 14 25 19 21 30 28 27 30 36 39 48 49 49 50 52 53 55 57 57 59 59 60 61 62 62 62 58 58 59 59 58 58 59 61 60 60 61 61 61 62 62 60 61 64
22 22 21 17 24 19 24 28 31 32 32 34 34 37 43 48 49 49 50 52 53 56 57 58 58 58 59 60 62 62 62 61 60 61 61 58 60 59 60 60 61 61 61 62 63 63 62 61 62
13 17 19 17 13 12 12 21 23 30 30 31 34 39 45 49 48 49 50 52 54 56 57 59 58 57 58 59 61 60 62 61 61 61 60 59 60 59 59 59 60 61 61 62 63 63 62 62 62
15 17 19 21 18 14 11 12 30 33 32 32 33 41 45 48 48 48 49 52 53 55 56 58 57 56 56 58 60 61 61 60 60 60 59 59 59 59 58 58 59 60 61 63 63 62 61 61 62
16 17 22 14 21 16 25 20 33 37 35 35 34 41 46 48 48 47 49 51 52 53 55 55 56 55 55 57 57 59 62 60 60 60 60 59 59 58 58 59 59 59 61 62 62 60 60 60 61

GFSSGP_sfc_dewp_006.txt.gz
Dewpoint
61 49 41 45 36 30 28 32 34 36 36 32 33 31 29 28 27 29 51 56 56 50 62 70 73 73 72 72 71 71 70 69 67 66 65 65 64 63 63 63 64 64 64 65 65 65 64 63 62
42 40 41 40 30 26 31 36 38 35 36 35 34 31 30 28 30 34 42 57 55 51 63 64 74 73 73 72 72 71 71 70 69 67 66 66 65 65 65 65 65 66 66 66 65 67 66 65 64
39 42 41 35 35 34 32 36 35 37 33 26 31 30 29 29 36 39 53 58 55 54 61 64 74 73 73 73 72 72 72 71 70 68 67 67 67 67 68 66 66 67 67 66 65 67 68 67 66
42 44 42 37 38 40 41 36 38 37 30 29 28 28 30 35 37 44 55 57 55 53 57 65 74 73 73 73 73 73 72 72 71 69 69 68 68 69 69 67 67 67 67 67 67 66 67 66 67
47 43 32 32 32 35 41 43 41 36 32 29 29 29 31 34 41 46 55 55 53 53 57 59 74 74 73 73 73 73 73 73 72 71 69 69 70 70 70 69 69 69 67 67 67 67 68 68 66
42 39 29 22 24 28 33 33 33 32 29 29 30 31 33 40 41 44 51 54 50 51 58 61 73 74 74 73 73 73 73 73 72 72 71 71 71 70 69 69 68 68 68 68 68 67 67 67 66
39 35 27 22 23 27 27 31 30 30 29 29 31 31 32 33 40 43 50 52 52 49 55 61 66 72 74 73 73 73 73 73 72 72 72 72 71 69 68 66 65 65 66 66 67 67 67 66 66
36 33 31 27 28 25 28 30 30 30 29 33 34 30 32 39 42 41 47 48 51 51 51 56 63 65 67 67 73 73 73 73 73 73 72 71 69 66 64 64 64 64 64 64 65 65 65 66 66
39 33 29 28 27 28 28 30 33 34 33 33 34 33 35 37 40 44 46 46 48 50 55 55 59 63 63 60 67 73 73 72 72 71 71 68 61 61 62 62 61 62 62 63 64 64 64 65 65
38 33 31 31 31 29 29 31 32 33 34 33 33 34 35 36 38 40 41 42 48 50 52 55 62 62 62 57 64 68 65 65 64 63 64 64 63 63 61 62 60 62 62 63 65 65 65 64 59
37 35 32 31 32 32 32 33 32 32 33 34 33 35 36 36 38 40 41 40 40 48 52 55 62 66 64 60 62 63 61 62 63 65 64 64 63 63 61 60 59 61 63 59 60 61 60 59 60
35 35 34 33 32 32 33 35 33 33 35 35 35 35 35 36 38 40 40 40 40 45 50 55 59 66 68 61 62 60 60 62 62 62 65 64 62 63 63 60 59 62 58 59 60 58 60 61 60
32 34 33 33 34 33 34 34 34 34 36 37 35 37 37 37 38 39 42 44 45 46 50 55 60 65 67 67 63 61 60 60 60 58 63 64 62 63 62 63 61 61 60 57 59 60 60 60 60
27 28 30 32 33 34 35 34 33 33 35 36 35 34 33 34 36 39 41 43 48 49 52 55 60 67 68 68 67 64 64 60 60 58 61 64 63 63 62 65 66 67 66 62 59 61 58 57 58
29 29 28 31 32 31 33 33 32 32 33 34 31 31 32 33 35 38 41 45 47 50 53 59 62 66 69 69 66 63 60 60 57 59 65 65 65 65 66 69 69 68 70 67 63 61 62 58 57
28 30 28 29 32 34 34 29 28 28 27 28 30 28 30 33 33 38 42 46 50 53 54 58 59 64 69 69 66 60 58 58 57 60 61 64 66 66 68 69 68 68 68 67 65 63 59 56 55
27 24 26 27 29 26 26 28 29 28 28 30 31 30 29 33 35 41 42 44 50 55 58 59 61 62 68 69 65 63 63 59 59 60 60 63 65 65 68 68 68 67 66 66 65 62 61 59 56
23 22 23 24 24 24 24 26 28 28 28 29 29 29 30 33 34 36 41 46 51 56 60 60 60 65 68 66 64 59 59 59 60 60 61 63 64 64 67 67 66 65 65 65 63 63 62 58 58
23 24 24 25 24 24 25 25 26 27 27 27 28 29 31 34 36 40 44 49 51 57 59 60 62 68 66 62 58 56 56 58 58 60 64 65 64 65 66 67 66 66 64 63 63 64 62 61 61
23 23 24 25 25 26 26 25 26 26 27 28 30 29 30 35 34 39 45 52 54 57 60 61 63 67 65 59 60 56 56 56 58 60 64 65 64 65 65 66 64 63 58 61 62 62 63 62 62
21 22 23 21 25 25 25 23 25 25 25 24 26 31 35 35 33 40 46 52 55 57 60 62 65 65 63 63 61 62 62 61 58 59 60 62 63 63 64 64 64 62 64 64 63 63 61 60 61
19 19 20 22 22 18 22 19 24 25 25 26 28 30 31 32 33 40 47 53 55 57 59 62 64 63 62 63 61 62 54 54 57 58 60 61 62 61 61 63 62 64 62 63 62 60 61 62 61
19 18 20 21 22 23 20 17 20 23 24 26 30 30 33 31 37 40 49 52 55 58 60 62 63 62 63 62 62 58 59 57 58 59 61 62 64 61 59 61 61 61 60 62 61 60 61 60 61
17 19 20 21 20 18 19 18 18 20 25 26 26 25 29 33 43 46 50 54 55 57 59 61 62 62 63 62 62 62 62 60 57 59 58 59 63 61 60 59 60 61 62 60 59 60 60 63 63
18 22 18 20 19 18 18 16 20 27 26 25 23 29 37 44 48 49 51 52 55 56 57 58 59 60 61 61 61 62 63 62 61 60 59 58 62 58 60 61 61 63 63 61 60 61 61 61 62
18 23 13 15 14 12 18 19 20 25 26 27 28 26 34 45 49 50 51 53 52 55 56 56 58 59 59 59 61 62 63 57 57 60 58 57 60 56 61 62 61 61 60 61 63 62 62 62 62
20 19 20 14 18 17 15 21 28 30 30 29 29 33 38 47 49 50 51 52 53 55 56 57 57 57 58 59 61 62 62 60 60 62 61 58 59 57 60 60 60 60 60 61 62 62 63 63 61
21 22 18 14 17 14 11 16 19 27 25 26 28 33 44 48 49 50 51 52 54 55 56 57 57 56 57 60 60 60 61 61 61 61 60 60 60 58 59 58 60 60 60 60 62 64 63 62 61
16 19 21 21 15 14 14 13 25 25 26 30 32 39 46 47 48 49 50 52 54 55 56 57 54 55 57 58 59 60 60 60 60 60 59 59 60 59 57 56 58 58 59 62 64 62 60 60 62
16 18 24 14 20 14 13 18 26 31 33 35 33 41 46 46 47 48 49 52 53 54 54 53 54 54 55 56 58 59 60 61 62 60 60 59 58 58 56 56 56 56 58 61 61 61 60 60 61

GFSSGP_sfc_dewp_009.txt.gz
Dewpoint
60 48 43 38 34 28 25 25 29 31 33 32 31 29 27 26 25 27 45 50 49 52 64 68 73 73 72 72 71 71 70 69 67 66 65 64 63 62 61 62 62 63 63 63 64 65 64 64 63
35 33 38 39 28 25 23 28 32 34 33 33 30 30 29 28 29 30 39 52 51 54 65 64 73 73 73 72 72 71 71 69 68 67 66 65 65 64 63 63 64 65 65 65 65 66 67 66 65
50 33 37 33 31 25 27 37 33 33 33 27 27 29 27 29 33 36 51 52 51 55 64 65 73 73 73 73 72 72 71 71 69 68 67 67 66 66 66 65 65 65 66 66 66 65 67 68 67
32 35 40 37 32 30 31 34 33 33 32 27 26 26 29 32 33 40 48 51 51 53 61 69 73 73 73 73 73 72 72 71 70 69 68 67 67 69 69 67 67 67 67 68 67 67 67 68 67
34 36 31 29 28 28 32 35 37 35 32 28 27 27 30 39 40 42 49 50 50 51 57 66 73 73 73 73 73 73 72 72 72 70 69 68 70 70 69 68 68 68 69 68 68 68 68 67 66
36 35 33 26 23 23 28 30 31 32 31 27 27 29 30 37 38 39 43 48 47 49 54 60 73 73 73 73 73 73 73 73 72 72 71 70 70 71 70 69 69 69 68 68 68 68 68 67 66
34 34 30 26 24 20 24 27 27 27 27 27 30 29 30 34 40 38 41 44 47 46 50 53 68 72 74 73 73 73 73 73 73 72 72 72 71 71 70 69 68 67 66 66 66 67 67 67 66
33 33 29 28 27 24 24 26 28 27 26 29 32 30 32 35 37 37 36 38 41 46 46 52 59 68 69 67 74 73 73 73 73 72 72 72 70 70 69 66 65 64 64 64 65 65 66 66 67
33 31 29 28 27 26 26 25 27 30 31 31 31 32 34 35 36 36 37 38 40 41 49 50 53 61 65 61 66 73 73 73 73 71 71 70 64 61 64 65 63 63 63 62 63 64 64 65 66
31 32 31 30 29 28 28 28 27 29 31 31 32 33 33 34 35 34 32 34 37 42 45 48 61 59 62 58 63 69 67 67 67 65 64 67 64 63 62 64 62 63 63 63 64 65 66 65 60
32 31 34 32 31 31 30 30 29 29 31 32 31 33 34 34 36 35 32 33 37 39 44 49 63 67 64 60 59 65 64 64 64 65 66 67 63 64 62 61 61 63 64 62 62 63 62 61 62
31 33 33 32 32 31 30 30 29 31 32 33 32 35 35 35 36 35 33 35 38 41 42 52 56 67 70 60 57 60 61 62 61 63 67 66 62 65 65 60 60 64 60 61 59 58 64 61 61
28 28 29 31 31 31 32 30 31 31 33 34 34 35 36 35 35 34 34 36 40 44 46 48 60 68 70 71 59 63 62 59 62 61 63 63 62 65 62 64 62 62 60 61 65 64 65 65 63
30 29 28 28 28 31 31 30 31 33 34 34 34 34 34 34 32 33 35 39 43 46 48 50 59 68 70 69 70 68 68 63 61 59 59 64 64 65 61 63 65 67 66 61 61 63 64 64 61
29 28 29 29 27 27 29 30 31 32 32 33 33 32 33 33 31 33 36 43 43 47 50 61 64 68 72 72 70 66 62 61 60 59 64 63 65 66 65 62 68 69 69 68 67 65 64 60 60
27 29 27 28 28 27 28 28 31 32 31 31 31 30 31 32 31 33 36 46 51 53 56 61 55 67 72 72 69 65 61 61 57 57 59 65 65 65 65 64 68 69 69 69 67 65 62 61 60
28 26 26 26 28 28 28 29 32 32 31 33 34 32 31 32 35 40 38 44 52 57 61 60 65 64 71 72 68 68 69 61 57 57 59 61 63 63 66 65 67 69 69 65 64 64 67 63 61
22 25 26 25 25 26 25 27 29 29 28 30 31 30 31 32 34 38 41 44 50 58 63 65 64 68 72 69 70 64 60 60 58 58 59 61 62 63 67 65 67 68 65 63 65 66 65 64 64
21 22 22 24 25 25 26 25 26 28 29 29 30 32 32 33 34 38 39 46 47 55 60 65 67 70 69 66 64 61 58 60 58 59 61 62 63 65 66 65 65 66 67 66 64 64 62 63 64
21 21 23 25 25 27 27 28 29 29 30 30 32 31 31 32 34 36 39 43 54 57 61 63 65 70 70 66 66 61 60 57 57 57 62 63 62 63 65 65 66 66 67 64 62 63 62 63 65
20 22 24 23 26 26 27 26 28 29 29 28 28 30 31 32 35 36 38 44 55 58 62 62 64 68 70 68 64 63 61 59 58 57 59 61 62 62 64 65 65 64 64 63 64 64 62 62 63
17 20 22 24 25 22 24 22 26 26 26 27 27 30 30 33 34 36 36 53 56 58 61 63 65 68 66 68 65 68 59 55 54 59 57 59 60 62 62 63 63 64 63 64 63 63 63 61 61
17 19 22 23 22 23 22 20 22 24 23 24 27 28 30 32 34 34 35 53 56 58 61 65 66 65 66 67 66 60 61 56 56 56 60 63 64 62 60 62 62 62 65 63 63 61 62 65 64
16 18 21 23 22 20 22 21 21 20 22 24 28 27 29 29 33 34 50 55 56 59 62 63 63 64 63 62 63 63 61 58 56 58 58 62 62 61 61 58 60 61 62 62 63 60 62 64 65
18 22 18 21 20 21 22 19 22 24 22 23 25 26 31 37 42 47 51 53 56 59 60 61 61 62 62 61 61 61 62 62 61 59 59 60 61 63 62 60 61 61 63 62 62 61 62 64 63
18 21 18 20 19 18 21 19 19 23 25 27 27 26 39 44 47 49 52 54 55 58 59 58 60 60 60 60 61 61 62 58 57 59 56 59 58 62 61 60 61 62 61 62 63 66 64 63 64
18 17 21 21 22 17 15 20 24 24 27 28 28 29 31 45 49 50 52 54 55 56 58 59 59 59 59 59 60 61 61 59 61 62 62 59 63 58 59 59 60 61 61 60 62 64 62 62 62
17 18 19 19 20 17 16 17 14 23 25 24 28 31 41 47 49 51 52 53 55 56 57 59 59 58 58 59 59 59 60 60 61 61 60 59 60 57 58 58 60 59 59 59 62 64 63 63 61
14 15 19 22 20 17 16 16 22 25 26 27 25 32 45 47 48 50 51 53 54 55 57 58 56 56 57 58 59 62 62 59 60 61 59 59 60 58 57 56 56 56 57 61 63 63 61 61 64
16 20 23 19 23 16 15 16 25 29 30 33 34 40 45 47 48 48 50 52 53 54 55 54 55 54 56 55 58 62 63 59 61 61 59 59 58 57 55 55 55 54 60 61 62 61 60 60 61

GFSSGP_sfc_dewp_012.txt.gz
Dewpoint
61 52 45 44 32 29 28 26 27 30 30 31 29 29 28 26 26 29 47 49 61 63 68 70 72 72 71 71 71 70 70 69 69 68 67 65 64 62 62 61 61 61 62 63 63 64 64 64 63
47 32 39 35 32 27 25 25 24 39 35 31 26 27 27 26 30 43 47 52 60 65 68 67 72 72 72 72 71 71 71 70 69 69 68 66 65 64 63 63 63 63 64 64 64 64 66 66 66
52 32 32 33 33 30 28 34 38 42 39 27 24 28 26 28 33 42 51 53 61 65 68 67 73 72 73 72 72 71 71 71 70 69 68 67 66 66 66 65 65 64 65 66 66 66 66 68 68
46 32 32 37 35 30 28 37 38 41 35 30 26 25 29 34 36 40 47 50 56 64 65 70 72 73 73 73 72 72 71 71 71 70 69 69 68 69 69 67 67 66 66 67 68 68 69 68 68
41 29 29 26 26 29 29 37 38 38 39 31 27 27 32 39 41 43 51 50 51 56 64 71 72 73 73 73 73 72 72 71 71 71 70 70 70 70 70 69 68 68 68 69 68 69 69 69 68
30 30 29 29 29 27 26 25 28 28 28 28 27 28 33 38 41 42 41 46 47 52 62 71 72 73 73 73 73 72 72 72 72 71 71 71 71 71 70 70 70 69 69 68 68 68 68 67 67
28 30 30 29 27 26 25 24 26 26 25 25 30 30 32 37 40 39 41 40 43 46 56 70 71 72 73 73 73 72 72 72 72 72 72 72 71 71 71 70 69 68 68 67 66 66 67 67 67
28 29 30 30 29 28 28 26 26 26 26 26 31 29 37 40 37 35 35 35 34 40 51 68 70 70 70 70 73 73 73 73 73 73 73 72 71 71 71 71 69 67 65 64 65 65 65 67 68
30 26 28 29 28 28 28 27 27 29 30 29 30 31 33 34 34 35 38 34 34 37 52 58 68 70 70 66 69 73 73 73 73 72 72 72 68 65 66 68 66 66 66 65 64 64 64 65 66
34 28 27 30 29 29 29 29 28 30 31 32 34 37 33 33 35 35 34 34 35 40 43 51 66 69 68 62 66 71 70 71 71 69 69 69 67 68 64 66 66 66 65 63 63 64 65 65 62
34 31 30 30 31 31 30 30 32 31 32 33 34 34 34 34 39 38 34 35 34 40 47 49 65 67 66 63 65 69 68 68 69 68 68 69 69 68 66 65 65 65 64 62 63 63 64 64 62
30 32 32 30 30 31 31 32 31 31 32 32 32 36 35 35 39 38 36 35 37 43 47 60 61 66 67 64 65 68 67 67 67 67 69 69 69 68 68 65 66 66 66 64 64 63 66 64 62
30 30 30 30 31 31 31 30 30 30 32 33 32 36 36 37 40 40 40 40 48 51 53 59 63 66 68 70 63 66 67 66 66 66 68 68 67 67 68 67 67 67 66 65 66 64 63 64 62
32 29 28 28 28 28 27 27 28 29 33 32 34 36 35 37 38 40 41 45 52 57 56 61 64 67 68 66 70 68 70 67 66 66 67 68 67 68 68 68 67 68 69 67 66 64 64 62 64
26 28 29 29 28 28 29 29 29 30 31 32 34 34 35 37 36 38 42 51 55 56 59 64 68 69 69 68 69 71 68 69 66 67 69 67 68 69 69 67 67 69 69 67 66 65 64 64 63
23 25 25 27 28 28 28 27 30 31 30 32 33 34 35 36 37 39 44 57 61 61 60 67 55 69 70 70 68 70 67 67 66 67 67 67 69 69 68 67 67 69 68 68 66 66 65 64 64
24 24 24 26 28 28 28 28 30 32 32 33 35 36 34 36 40 46 50 51 57 62 65 66 66 68 71 72 71 70 72 68 68 66 65 67 67 67 67 67 68 68 68 67 66 65 64 64 63
20 21 23 26 26 26 25 27 29 31 31 33 34 35 34 35 38 44 51 52 53 63 66 69 69 71 71 71 72 69 69 69 68 66 66 68 67 66 67 67 68 68 66 66 65 64 65 64 63
19 19 19 22 23 24 27 28 28 30 31 31 33 35 36 37 40 42 49 52 55 62 69 71 71 73 70 69 68 67 65 66 67 67 67 65 66 66 67 66 67 66 66 65 64 64 63 63 63
18 18 19 21 20 24 26 26 30 32 33 34 35 36 37 37 37 40 47 54 55 64 69 70 71 72 70 69 69 68 66 64 64 66 67 67 66 67 65 66 66 66 65 65 64 63 62 62 62
18 18 20 19 21 23 26 26 30 30 32 33 33 35 35 36 37 39 41 48 63 65 67 68 69 70 71 71 69 71 68 66 66 66 66 66 65 65 65 66 66 65 65 64 63 63 62 61 62
18 16 16 18 21 21 25 24 31 30 30 31 32 34 35 37 39 40 43 48 61 63 65 67 68 71 70 71 69 67 64 63 64 65 66 65 64 63 63 65 64 65 65 64 63 64 63 62 59
19 17 17 17 19 23 21 22 25 27 26 28 31 32 33 35 37 37 40 58 60 63 64 66 69 69 70 69 68 66 65 66 66 65 66 66 66 64 62 64 64 64 65 64 64 63 62 63 61
18 18 18 19 19 21 24 22 23 25 26 28 29 27 32 33 36 40 55 59 60 62 65 67 68 68 66 67 67 67 67 66 63 63 64 64 65 65 64 63 63 64 64 64 63 63 62 62 61
18 23 18 17 18 20 22 21 26 29 27 25 26 26 31 42 49 55 55 57 59 62 64 65 65 64 66 66 65 67 67 66 65 64 65 64 63 64 64 63 61 63 64 64 64 63 63 62 61
18 23 16 16 15 16 20 21 23 29 29 28 26 31 37 45 50 53 56 57 59 62 63 62 63 63 64 64 65 66 67 64 65 65 65 64 64 64 64 61 62 64 63 64 64 64 64 63 62
18 15 19 21 20 17 19 23 28 29 24 28 27 31 45 47 51 53 56 57 59 61 62 62 62 62 63 63 65 66 66 65 65 66 66 64 64 62 63 63 63 63 63 63 63 63 63 63 64
19 17 19 18 19 22 18 21 20 25 25 24 28 34 47 50 50 54 55 58 59 60 61 62 62 62 62 63 64 63 64 64 65 65 64 63 64 63 62 61 63 63 62 62 63 64 64 63 64
17 17 17 24 21 20 21 17 24 23 23 27 28 40 48 50 51 53 55 57 58 59 61 62 61 61 61 62 64 64 63 62 63 63 62 63 63 62 61 59 60 61 60 62 63 63 63 62 63
19 18 21 19 23 21 23 21 33 32 28 32 38 45 47 50 50 52 54 55 55 57 58 59 59 58 60 60 62 63 64 62 64 64 61 63 62 61 60 59 57 60 61 63 62 62 61 61 61